Theta_e
343 347 350 351 352 353 352 351 351 349 348 348 348 348 348 349 350 351 353 355 357 356 357 357 356 354 355 354 354 357 358 358 360 359 360 359 359 359 359 357 355 355 360
345 347 350 351 351 351 350 351 350 349 347 347 346 345 346 347 347 348 349 350 352 354 355 355 356 356 356 356 355 355 356 355 356 358 358 358 356 357 357 357 361 356 358
344 346 346 350 351 351 350 349 348 347 345 346 346 346 345 345 346 346 347 348 348 349 351 353 353 353 354 354 354 353 353 354 352 351 355 353 352 355 356 356 357 357 358
346 346 346 349 348 346 344 343 343 343 346 346 345 345 345 346 346 346 346 346 346 347 347 347 348 350 350 351 351 351 351 351 352 352 349 349 349 355 356 355 356 356 356
346 347 345 345 343 342 342 341 340 342 342 340 341 341 341 342 343 344 345 345 345 345 344 345 345 345 345 346 346 347 348 349 351 350 347 347 347 353 353 354 354 355 354
340 340 341 343 342 341 340 340 338 339 337 338 337 337 337 336 337 338 337 338 340 343 344 344 343 343 343 342 343 344 344 346 348 342 346 348 348 356 354 353 354 353 354
336 336 337 341 340 338 337 336 337 336 335 334 336 335 335 334 333 333 333 333 333 334 335 337 339 342 342 342 342 342 343 344 341 340 342 344 347 355 356 354 354 352 352
331 331 332 338 338 336 335 334 333 334 334 334 334 332 331 330 329 329 330 330 330 330 331 331 332 335 338 341 342 343 342 343 339 336 338 343 350 352 355 354 353 351 351
331 331 334 334 336 336 334 333 332 331 332 332 330 328 328 327 326 325 329 327 326 327 327 328 329 329 331 335 337 343 343 343 337 335 335 345 351 348 354 353 351 349 351
328 326 326 328 328 332 330 332 331 328 328 329 326 326 328 329 330 327 328 325 325 325 325 325 327 327 328 329 332 337 342 343 337 332 334 342 351 354 353 353 351 349 351
324 323 324 324 327 330 324 329 331 330 329 328 330 328 332 328 328 325 327 322 322 325 326 325 326 327 327 328 330 332 340 336 331 330 332 351 352 354 354 353 352 351 349
324 324 325 329 327 326 322 329 332 328 330 331 329 330 329 330 330 325 329 328 326 327 329 329 328 328 328 323 321 334 334 335 333 331 342 351 351 352 352 354 354 352 350
324 323 321 330 326 323 323 326 328 331 331 331 331 330 331 327 331 327 324 324 327 329 325 325 325 325 324 322 321 322 329 328 331 332 338 343 342 340 344 350 352 352 352
326 324 322 323 324 330 325 324 325 325 327 325 326 330 329 325 328 327 325 325 326 325 325 325 323 326 325 324 321 320 320 321 328 329 336 339 339 339 338 340 348 350 349
323 323 325 328 329 329 329 328 329 327 327 328 329 326 326 326 327 325 326 326 326 325 323 323 323 325 323 324 323 322 322 322 323 327 330 343 341 340 340 341 341 347 349
322 323 328 328 334 333 333 331 329 331 329 331 331 327 326 326 327 324 323 324 325 324 323 323 322 324 323 322 322 323 323 321 322 323 326 329 342 343 341 340 341 343 346
322 328 332 330 332 335 333 332 330 328 324 327 331 329 326 328 327 328 322 324 323 326 325 325 325 324 323 322 322 322 323 323 322 321 323 324 330 341 340 339 340 342 343
327 332 331 326 331 333 335 332 331 331 331 329 329 329 327 327 327 327 323 322 324 325 323 324 324 321 320 320 320 322 321 322 321 321 323 322 323 327 338 338 338 339 342
330 333 328 332 330 333 333 334 332 333 331 332 330 329 326 327 325 324 324 323 326 323 322 323 323 322 319 319 318 319 321 322 322 320 320 321 321 324 329 337 336 337 338
330 334 335 332 329 327 327 332 330 329 331 332 330 328 328 327 325 324 322 326 326 323 320 324 323 322 321 320 318 317 318 320 320 320 320 321 319 320 323 329 331 331 336
331 333 334 328 328 330 330 330 328 323 326 328 327 328 328 327 324 328 321 321 323 323 320 323 323 321 319 321 316 316 317 319 320 318 319 319 319 320 321 322 329 329 330
331 334 330 330 328 330 333 330 331 329 326 328 328 329 329 326 324 324 324 323 323 321 322 323 323 319 319 322 315 314 309 313 318 319 320 318 319 321 321 322 325 327 328
332 331 331 332 330 332 333 333 331 330 327 328 325 326 325 327 326 324 325 321 321 323 319 323 321 320 317 319 320 315 308 306 311 316 317 318 321 320 321 323 324 325 326
329 333 330 331 327 332 329 326 326 324 319 321 325 326 328 328 326 326 326 325 322 323 322 322 324 322 320 316 318 320 318 316 309 306 314 316 319 319 321 323 321 323 322
327 329 331 323 322 325 326 327 323 322 324 326 326 326 328 328 326 324 325 324 323 321 324 321 322 322 322 318 317 317 315 315 315 310 306 310 316 319 321 322 323 323 321
328 326 327 322 319 318 320 324 327 324 326 322 323 322 322 322 321 324 325 324 323 322 322 322 324 321 321 321 319 318 315 312 310 310 307 309 309 311 315 316 319 322 322
Wind_Speed
5 7 13 14 14 15 15 14 15 14 14 14 15 15 15 15 16 16 16 16 14 14 14 11 10 10 9 8 8 8 8 8 8 9 11 11 10 10 8 6 2 12 13
8 8 13 16 14 14 14 13 15 14 13 13 13 13 13 14 14 14 14 15 16 15 14 12 12 11 10 10 8 7 7 5 5 5 6 8 7 8 8 7 11 11 11
10 7 11 14 14 14 14 14 13 13 11 11 12 12 12 12 12 12 12 12 13 13 14 14 11 10 10 9 8 8 6 4 3 1 3 1 7 7 10 11 11 10 10
11 8 8 15 13 13 14 14 11 10 11 12 11 12 12 11 11 12 11 11 11 11 10 11 10 10 9 8 7 6 6 5 6 5 5 5 6 10 10 11 10 9 10
13 10 11 15 14 14 13 11 9 9 10 10 11 11 11 11 11 11 12 11 10 9 8 8 8 7 7 6 5 5 5 6 8 9 7 3 5 10 9 10 9 8 6
14 13 13 14 13 11 10 9 8 8 8 8 8 9 9 10 10 10 10 9 9 9 9 9 7 6 5 5 5 5 6 8 10 9 5 4 7 14 13 9 10 9 8
15 12 11 12 11 10 9 8 6 6 5 5 6 6 7 7 7 7 8 8 8 8 8 7 7 7 6 6 6 6 8 10 8 10 4 7 8 16 15 10 10 9 8
15 13 10 11 10 9 10 9 6 5 5 5 5 4 3 3 3 4 6 7 8 9 8 9 8 8 9 9 8 8 9 11 10 10 11 5 13 10 14 15 11 8 8
14 14 12 11 10 10 9 10 7 4 4 4 3 2 3 3 2 2 6 6 7 8 9 8 9 9 9 10 10 11 11 12 9 9 13 6 19 20 17 15 12 8 8
12 11 9 7 5 11 9 10 9 5 3 2 2 5 8 8 9 6 7 6 8 8 9 10 11 11 11 11 12 12 12 13 9 10 10 4 19 20 16 16 15 11 8
9 9 11 9 9 4 5 7 8 7 6 4 7 7 9 3 2 9 2 2 3 7 9 9 10 12 13 14 16 16 15 6 10 8 8 18 21 22 20 17 16 13 13
8 7 9 7 8 7 7 6 0 4 5 2 3 6 4 5 5 5 8 8 8 11 14 11 12 13 12 7 7 16 6 9 7 6 3 9 9 11 15 17 17 16 14
6 6 6 7 6 10 7 4 2 2 2 4 5 2 4 4 2 4 4 4 4 6 2 5 5 2 7 6 7 6 6 6 2 3 3 6 7 4 5 10 14 15 15
5 5 5 8 8 7 7 5 6 4 3 4 4 3 4 4 3 4 3 4 3 3 5 5 4 5 5 6 6 7 9 7 3 3 5 6 4 6 4 4 11 14 15
4 3 5 7 5 5 5 5 3 3 3 3 4 7 3 4 4 5 4 4 3 3 4 5 6 4 5 6 5 5 5 7 8 4 3 11 11 10 11 9 9 13 16
4 7 6 6 4 3 3 4 4 3 5 3 1 4 3 2 3 5 5 4 4 5 4 4 5 4 5 5 5 5 5 5 7 8 6 4 17 16 12 12 11 14 16
8 11 3 4 4 1 4 5 4 4 5 5 1 4 5 1 4 3 6 5 3 3 6 6 5 5 4 5 6 5 4 6 6 7 7 5 4 9 10 12 14 15 18
11 10 7 3 2 4 2 5 3 3 2 4 3 3 2 3 4 3 5 5 3 4 6 5 4 5 6 7 7 5 5 5 6 6 5 6 7 5 10 11 12 13 15
12 11 6 7 6 1 4 4 6 3 4 3 3 2 6 3 3 4 4 5 4 4 6 3 3 4 5 7 8 9 5 4 5 7 7 7 7 5 4 12 13 12 13
13 11 9 3 4 5 4 6 6 4 3 1 2 5 3 3 5 5 4 5 4 4 5 3 4 4 7 8 7 9 8 7 5 5 5 6 5 6 7 6 6 6 13
9 12 8 7 6 4 6 3 3 4 4 3 4 4 1 3 6 3 3 5 2 3 5 4 3 5 7 5 4 4 7 8 7 9 4 4 6 6 6 6 6 5 6
15 10 9 9 7 5 6 4 2 2 4 3 3 1 2 4 6 5 3 3 4 5 6 6 2 4 5 3 5 4 5 7 4 5 4 3 6 4 4 6 7 6 5
9 9 13 9 8 10 11 5 4 4 4 1 2 3 5 2 6 4 5 4 4 5 5 3 4 5 4 7 5 2 4 3 8 4 5 6 3 3 4 4 4 9 8
7 7 3 7 7 12 7 8 6 3 5 4 2 3 1 4 6 5 5 4 5 4 5 4 3 3 4 6 3 2 4 5 3 5 3 5 4 3 5 4 4 3 6
6 4 8 6 7 11 10 11 8 6 3 2 3 5 4 5 6 8 4 5 5 6 3 6 5 4 4 4 3 3 3 4 6 5 8 6 2 3 4 4 5 4 4
2 2 6 10 10 10 10 16 8 8 5 5 4 4 5 4 3 5 4 5 5 6 5 5 5 6 5 4 4 4 3 3 6 6 7 6 3 4 4 5 4 4 5
Wind_Direction
48 67 66 68 62 62 71 78 75 70 65 66 62 59 53 52 50 49 47 46 48 51 50 54 58 58 61 55 40 38 36 39 47 52 63 71 80 78 67 71 145 100 96
100 75 59 61 63 69 68 65 72 69 63 67 66 63 60 57 54 52 49 47 47 49 50 47 49 49 48 52 50 37 18 33 50 68 89 98 84 91 76 59 81 107 103
98 84 84 77 73 79 83 76 72 71 67 77 77 73 68 63 60 59 55 51 49 49 45 45 49 49 49 45 44 37 31 26 354 348 215 219 120 108 88 91 97 107 109
104 98 107 106 102 93 85 77 75 77 74 77 73 75 72 71 68 64 56 51 46 44 49 46 43 42 42 41 36 27 12 346 314 305 246 165 155 128 120 114 118 121 121
115 114 104 103 99 92 87 84 84 87 82 77 75 71 70 68 65 62 57 47 48 43 36 37 29 32 35 29 20 4 344 324 316 298 246 196 205 137 129 127 136 140 157
112 105 103 99 94 90 87 85 81 84 78 82 78 78 74 66 63 63 61 58 45 36 32 24 16 11 10 360 355 338 328 314 311 266 212 187 123 146 140 146 119 128 135
115 118 107 109 111 110 98 80 74 71 70 57 70 63 65 69 64 58 52 42 38 30 27 21 8 354 344 332 317 316 314 310 296 287 267 190 148 157 146 144 137 132 136
118 122 131 138 135 127 116 99 71 58 62 63 56 59 63 79 81 75 53 46 26 9 360 352 349 345 340 329 312 296 297 300 302 285 279 162 143 148 153 146 139 143 160
137 153 161 156 159 149 133 112 92 66 61 53 45 6 287 282 256 135 99 50 14 344 329 323 320 316 315 314 308 300 286 288 293 289 289 137 149 157 186 154 146 164 175
70 52 74 73 137 171 166 140 135 157 160 183 237 261 275 268 260 230 176 34 353 327 307 303 295 292 290 288 285 281 276 277 275 271 279 169 168 171 176 153 150 174 196
73 78 60 34 360 63 40 136 160 177 172 205 230 260 274 248 334 10 81 245 289 281 285 283 277 277 280 277 266 255 251 249 259 260 249 157 176 177 161 161 158 176 193
71 83 99 65 9 6 48 318 345 162 115 93 45 332 337 339 296 308 285 252 261 261 278 254 260 260 273 263 264 244 222 238 240 274 29 129 172 167 176 168 166 174 195
39 18 55 87 70 4 17 338 0 60 85 162 129 30 351 330 345 342 318 12 323 298 322 310 321 270 7 330 322 323 264 282 11 335 67 91 125 100 231 190 183 180 192
350 326 39 72 46 39 5 11 344 23 347 14 30 117 13 341 7 346 358 321 333 317 323 0 337 348 339 316 296 308 311 310 289 250 176 170 161 157 190 237 222 207 207
223 253 284 74 46 36 41 341 340 10 30 344 318 72 17 344 6 329 327 280 288 351 357 356 319 352 306 285 288 285 289 303 300 284 223 178 194 187 200 208 223 232 219
205 247 237 122 116 24 27 323 319 93 288 246 270 87 12 18 21 307 320 327 305 31 351 299 290 285 281 288 294 289 264 258 288 293 299 259 203 200 200 200 216 228 228
221 245 164 232 150 110 59 320 329 37 335 295 336 162 165 68 330 298 303 300 51 360 309 273 278 292 302 318 307 270 287 279 240 264 284 281 269 189 211 234 224 224 226
238 258 211 282 237 139 142 272 264 152 234 282 14 304 147 123 281 275 306 313 25 339 288 275 341 5 343 329 307 286 265 252 261 274 262 262 268 201 210 222 243 235 234
234 255 250 203 250 174 276 273 279 258 203 243 219 243 59 335 314 343 313 303 306 284 293 355 350 4 325 303 316 306 286 246 246 249 248 250 266 251 173 209 210 222 219
223 241 227 234 253 288 278 264 262 343 317 237 239 90 34 4 308 235 253 287 256 296 308 360 333 324 298 288 290 309 304 308 279 262 254 261 262 271 240 183 186 193 223
221 219 206 226 235 242 261 303 344 359 300 296 98 80 56 267 263 308 246 291 357 285 284 292 314 314 281 309 297 305 308 292 283 247 238 246 268 255 238 223 185 197 188
220 199 208 234 237 244 248 243 226 257 282 272 339 23 301 295 288 276 269 273 321 305 295 305 324 294 308 321 287 304 305 306 23 346 316 280 268 271 267 235 161 143 163
240 217 217 214 240 241 245 278 245 233 289 77 261 254 249 257 282 310 307 304 248 271 281 352 302 289 321 308 336 327 321 318 337 301 291 251 340 322 336 346 264 174 182
269 323 268 252 305 275 292 280 257 252 278 264 250 271 280 269 284 275 281 303 283 285 286 307 306 314 306 289 341 319 295 280 298 310 317 329 342 337 319 332 304 267 205
161 195 190 134 202 158 227 246 255 243 340 277 235 281 294 265 241 241 244 273 269 280 325 282 291 284 258 266 276 295 318 309 278 271 283 273 300 303 313 301 318 318 291
313 298 163 156 170 182 216 242 228 259 265 278 294 305 296 284 214 239 244 259 273 276 283 290 283 278 276 268 264 264 300 294 287 292 284 258 252 283 283 276 261 268 232